Wind_Speed
7 7 7 7 7 7 6 7 6 6 6 6 6 7 7 8 8 8 8 8 8 9 9 9 8 7 7 7 7 6 6 7 8 8 9 9 10 10 10 10 11 11 11
8 7 7 7 7 7 7 6 6 6 6 6 7 8 8 9 9 9 9 9 9 10 9 8 8 8 8 8 8 7 7 8 9 10 10 10 10 10 11 11 12 12 11
8 8 8 8 7 7 7 7 7 7 7 8 8 8 9 9 9 10 10 10 11 11 10 10 9 8 8 9 9 8 8 9 10 11 11 11 11 11 11 11 11 12 12
8 8 8 8 8 7 8 8 7 7 7 8 8 8 9 9 10 11 11 12 12 11 10 10 9 9 9 9 10 9 10 10 11 11 12 12 12 12 12 13 13 13 12
9 8 8 8 8 7 8 8 8 8 8 8 9 9 9 10 10 11 12 13 13 12 11 11 11 11 10 10 11 11 11 12 12 12 12 12 13 13 13 13 13 13 14
9 9 9 9 8 8 8 8 8 9 9 9 9 9 10 11 11 12 12 13 13 13 12 12 13 13 12 12 12 12 12 12 12 12 13 13 14 14 14 13 13 14 15
10 10 9 10 9 9 9 9 9 9 10 10 10 10 11 11 11 12 13 13 13 13 14 13 13 14 14 14 13 12 13 13 13 13 14 14 14 14 15 14 14 15 15
12 10 9 10 10 10 10 10 10 10 10 10 11 11 12 12 12 13 14 15 15 15 16 16 15 15 16 15 14 13 13 14 14 14 15 15 15 15 16 15 15 15 16
12 12 10 10 11 11 11 11 11 11 11 11 11 12 12 13 13 14 15 16 16 17 17 17 17 16 16 16 16 15 14 14 15 15 16 16 16 17 16 16 17 17 17
14 13 12 12 12 13 12 12 12 12 12 12 12 13 13 14 14 15 16 16 17 17 17 17 17 17 16 17 16 16 16 16 16 16 16 17 18 17 17 17 18 18 19
13 14 13 13 14 14 14 13 13 13 13 14 14 14 14 14 15 15 16 17 18 18 18 18 18 17 16 16 16 16 17 18 18 18 18 18 18 18 18 19 19 20 21
15 15 15 14 14 14 14 14 15 15 15 15 15 15 15 15 15 16 17 18 19 19 19 19 18 16 16 17 17 17 18 19 19 20 19 19 19 19 20 20 21 22 22
17 16 15 16 15 15 15 16 16 16 16 16 16 16 16 16 16 17 18 19 20 20 19 19 18 16 17 18 19 19 20 20 21 20 20 20 20 20 21 22 22 23 24
18 17 17 16 16 16 17 17 17 17 17 17 17 17 17 18 18 19 20 20 20 19 20 19 19 18 19 19 20 21 21 21 21 21 21 21 22 22 23 24 24 24 25
19 19 19 18 18 18 18 18 18 18 18 18 19 19 19 20 20 20 21 21 21 21 21 21 20 20 21 21 22 22 23 22 22 22 23 23 24 24 24 25 25 26 26
19 20 20 21 20 20 20 20 20 20 20 21 21 21 21 21 21 21 22 22 22 22 22 22 22 22 22 22 23 24 23 23 23 24 24 25 25 25 26 26 27 27 28
21 22 22 22 22 22 22 22 22 22 22 22 22 22 22 22 22 22 23 23 23 23 24 24 24 24 24 24 24 24 25 25 25 26 26 27 27 27 28 28 29 30 30
23 24 23 23 23 23 23 23 23 23 23 23 23 23 23 23 23 24 24 24 24 24 24 25 25 25 25 25 25 26 26 27 27 27 28 28 29 29 29 30 30 31 31
26 25 25 24 24 24 23 23 24 24 24 24 24 24 24 24 25 25 26 26 26 26 26 26 26 26 27 27 27 27 28 28 29 29 29 29 30 30 30 31 31 31 31
27 27 27 27 26 26 25 25 25 25 25 26 26 25 26 26 27 28 27 27 28 28 28 29 28 28 29 29 28 28 29 30 30 30 30 31 31 31 31 32 32 32 31
28 28 27 27 27 27 27 27 27 27 27 27 27 27 28 28 29 29 28 29 29 29 30 30 29 30 30 30 29 30 30 31 32 32 32 32 32 32 32 33 33 32 31
30 29 29 28 28 28 28 28 28 28 29 29 29 29 29 29 29 30 30 30 31 31 31 31 30 30 31 30 30 31 32 32 33 33 33 33 34 34 34 34 34 33 32
30 30 30 30 30 29 29 29 29 30 30 30 30 30 30 30 30 30 30 31 32 32 32 32 31 31 32 31 32 32 33 34 34 34 34 34 35 35 36 36 35 34 33
32 31 30 30 30 29 30 30 31 31 31 30 30 30 30 30 30 31 31 32 32 32 33 33 32 32 33 33 33 33 34 34 35 35 36 36 36 36 36 35 35 34 33
31 32 31 31 30 30 31 31 31 31 32 31 31 31 31 31 31 32 32 32 32 32 32 33 33 33 33 34 34 34 34 35 35 35 36 35 35 35 34 34 33 33 33
33 33 33 32 31 30 31 32 31 32 32 32 31 31 32 32 31 31 32 32 32 32 32 33 33 33 33 33 33 33 34 34 34 34 34 34 34 34 33 32 32 31 32
Wind_Direction
355 357 360 3 2 6 10 13 14 10 8 7 8 7 4 4 4 2 357 355 355 353 353 350 347 344 346 342 334 328 321 321 320 317 317 319 321 320 320 318 313 312 314
342 347 353 354 354 356 1 3 4 3 1 1 0 360 360 359 357 355 351 349 348 346 345 343 340 342 343 338 333 327 323 320 318 317 317 315 316 316 314 313 313 312 312
334 340 350 351 348 348 351 351 349 352 353 352 354 355 353 350 349 347 345 343 342 342 340 338 340 341 338 332 327 321 319 322 322 320 319 317 315 315 313 316 316 315 315
329 336 343 342 341 342 343 346 345 344 343 343 345 346 344 341 341 340 338 337 340 340 340 339 337 332 329 326 321 319 321 323 322 321 320 318 319 316 315 316 316 317 317
328 332 332 329 329 332 336 339 341 341 338 336 335 335 336 337 337 337 337 339 337 337 334 334 330 326 324 321 320 319 320 319 318 318 319 320 320 319 318 317 316 316 316
315 322 323 323 322 325 326 327 329 333 336 335 335 333 331 331 332 332 332 333 335 333 330 328 325 324 321 317 315 317 318 318 318 318 317 318 321 318 317 317 318 316 315
304 312 315 315 317 319 323 323 323 325 329 330 330 330 329 329 328 328 328 330 331 331 329 327 325 323 318 316 314 315 315 315 317 317 317 316 317 319 317 316 318 318 316
296 299 304 307 310 313 317 320 320 318 320 323 322 324 325 327 327 326 325 325 324 323 322 321 320 318 318 316 317 314 315 313 313 314 313 314 315 318 317 315 317 317 316
287 294 300 309 307 308 311 314 314 313 314 317 317 318 319 320 320 322 323 323 323 320 317 317 316 315 315 314 313 313 310 311 310 309 308 309 312 314 314 313 313 313 312
282 288 299 303 305 305 308 311 312 312 311 313 315 314 314 315 315 317 318 319 321 320 318 316 315 314 314 313 312 311 311 310 309 308 308 307 309 310 311 310 309 310 310
277 286 291 294 299 300 302 305 307 307 308 307 309 308 310 312 313 315 317 319 319 319 318 316 314 312 311 310 310 310 311 310 308 308 309 308 307 307 307 307 306 308 308
285 287 290 294 296 297 299 301 303 304 305 304 305 304 305 308 310 311 313 315 315 317 315 315 312 312 310 308 308 308 309 308 307 306 305 305 305 305 305 305 306 307 308
283 284 287 289 291 294 296 299 299 300 301 301 301 302 302 303 305 307 310 312 314 314 315 313 311 309 310 309 307 307 307 306 306 305 302 302 302 303 304 304 304 305 305
279 281 284 286 288 293 294 295 296 298 299 300 301 300 300 301 302 305 308 310 312 313 313 312 312 309 309 307 305 306 304 304 305 305 304 303 303 303 302 302 302 302 302
275 277 279 284 287 288 290 291 294 296 297 298 300 299 299 300 302 304 305 306 307 308 308 307 308 309 308 306 303 303 303 303 303 303 304 304 305 303 302 301 301 301 301
272 274 277 280 283 285 287 288 290 292 293 294 296 297 298 299 300 301 303 305 307 307 304 303 304 306 306 305 304 304 303 303 303 302 302 303 303 302 301 301 301 301 301
272 274 275 276 280 283 286 288 289 289 291 292 293 293 295 295 297 300 302 303 304 304 303 301 301 302 302 301 300 300 300 300 302 301 301 302 301 300 299 300 300 301 301
273 274 274 277 281 282 286 288 289 289 291 292 292 292 293 294 296 298 300 303 303 303 302 300 300 300 299 299 299 299 299 299 300 301 301 301 301 300 299 297 297 298 298
274 274 275 276 277 281 284 287 289 290 292 291 293 293 292 293 294 296 298 298 299 299 300 300 299 299 298 297 297 297 298 298 298 299 300 301 301 300 298 297 297 297 297
273 274 276 278 280 281 284 287 287 289 291 291 292 291 291 291 292 294 295 296 298 299 300 300 299 298 297 297 296 297 297 297 297 297 297 298 298 299 297 297 297 296 296
273 274 276 277 278 280 282 285 286 287 289 289 291 290 289 289 291 293 293 295 298 299 299 301 300 299 298 297 296 296 296 296 296 296 295 296 296 297 297 298 297 296 295
270 272 274 275 276 278 280 283 284 286 288 288 289 290 288 288 289 292 294 295 297 298 299 298 298 299 299 297 296 296 296 296 297 296 295 296 295 295 296 296 296 295 294
270 271 273 275 276 277 279 281 282 284 286 287 288 289 288 289 290 292 293 294 295 296 297 296 296 297 297 297 296 297 297 297 297 297 296 295 295 295 294 293 292 291 291
270 270 271 274 276 276 278 280 280 281 282 285 287 287 288 288 289 291 292 294 295 295 296 297 296 296 296 297 297 296 296 296 296 297 296 295 294 293 293 292 290 289 289
267 269 271 272 273 274 276 279 278 278 280 282 285 286 287 287 289 291 292 293 294 296 296 297 297 297 298 298 297 296 296 297 297 297 297 296 295 294 293 292 291 290 289
269 267 269 270 271 273 276 277 278 279 279 281 283 285 286 288 289 292 292 293 293 295 296 297 298 297 297 298 299 300 299 298 298 299 300 298 296 294 292 291 290 288 288
Height
5911 5910 5909 5909 5908 5907 5906 5905 5905 5904 5904 5903 5902 5902 5901 5900 5899 5898 5897 5896 5895 5894 5893 5892 5891 5890 5889 5889 5888 5887 5887 5887 5886 5886 5885 5885 5884 5883 5882 5881 5880 5878 5877
5911 5910 5910 5909 5908 5908 5907 5906 5905 5905 5904 5903 5903 5902 5901 5900 5899 5898 5897 5895 5894 5894 5893 5892 5891 5890 5889 5888 5887 5886 5886 5885 5885 5884 5883 5883 5882 5881 5879 5878 5877 5876 5874
5911 5911 5910 5909 5909 5908 5907 5906 5906 5905 5905 5904 5903 5902 5901 5900 5899 5898 5897 5896 5894 5893 5892 5891 5890 5889 5888 5887 5886 5885 5885 5884 5883 5882 5881 5880 5879 5878 5877 5875 5874 5873 5872
5911 5910 5910 5909 5909 5908 5907 5906 5905 5905 5904 5904 5903 5902 5901 5900 5899 5898 5896 5895 5893 5892 5891 5890 5889 5888 5887 5886 5885 5884 5883 5882 5881 5880 5879 5878 5877 5876 5875 5873 5872 5870 5869
5911 5910 5909 5909 5908 5908 5907 5906 5905 5905 5904 5903 5902 5901 5900 5899 5898 5897 5895 5894 5893 5891 5890 5889 5888 5886 5885 5884 5883 5882 5881 5880 5879 5878 5877 5875 5874 5873 5872 5871 5870 5868 5867
5910 5909 5909 5908 5908 5907 5906 5906 5905 5904 5903 5902 5901 5900 5899 5898 5897 5896 5895 5893 5891 5890 5889 5887 5886 5885 5884 5882 5881 5880 5879 5878 5877 5876 5875 5873 5872 5871 5870 5868 5867 5866 5864
5909 5908 5908 5907 5907 5906 5906 5905 5904 5903 5903 5902 5900 5899 5898 5897 5896 5895 5893 5892 5890 5889 5887 5885 5884 5883 5881 5880 5879 5878 5877 5876 5874 5873 5872 5871 5870 5868 5867 5865 5864 5863 5861
5908 5907 5906 5906 5905 5905 5905 5904 5903 5902 5901 5900 5899 5898 5897 5896 5895 5893 5892 5890 5888 5887 5885 5883 5882 5880 5879 5877 5876 5875 5874 5873 5872 5871 5869 5868 5867 5865 5864 5862 5861 5860 5858
5906 5905 5904 5904 5904 5904 5903 5902 5901 5901 5900 5899 5898 5896 5895 5894 5893 5892 5890 5888 5886 5885 5883 5881 5879 5878 5876 5875 5873 5872 5871 5870 5868 5867 5866 5865 5864 5862 5860 5859 5858 5857 5855
5903 5903 5902 5902 5902 5901 5901 5900 5900 5899 5898 5897 5896 5895 5894 5893 5891 5890 5888 5886 5884 5882 5880 5878 5876 5875 5873 5872 5870 5869 5868 5867 5865 5864 5863 5862 5860 5859 5857 5856 5854 5853 5851
5900 5901 5901 5901 5900 5899 5898 5898 5897 5897 5896 5895 5894 5893 5891 5890 5889 5887 5885 5883 5881 5879 5877 5875 5873 5872 5870 5869 5867 5866 5864 5863 5862 5860 5859 5858 5856 5855 5853 5852 5850 5848 5846
5899 5898 5898 5897 5897 5897 5896 5895 5895 5894 5893 5892 5891 5890 5889 5887 5886 5884 5882 5880 5878 5876 5873 5871 5869 5868 5867 5866 5864 5862 5861 5859 5858 5856 5855 5853 5852 5850 5849 5847 5846 5844 5842
5896 5895 5894 5894 5894 5894 5893 5892 5891 5890 5890 5889 5888 5887 5885 5884 5883 5881 5879 5877 5874 5872 5869 5868 5866 5865 5864 5862 5860 5858 5857 5855 5853 5852 5850 5849 5847 5846 5844 5842 5841 5839 5837
5892 5892 5891 5890 5890 5890 5890 5889 5888 5887 5886 5885 5884 5883 5882 5880 5879 5877 5875 5873 5870 5868 5866 5864 5863 5861 5860 5858 5856 5854 5852 5851 5849 5847 5846 5844 5842 5840 5838 5837 5835 5833 5831
5888 5888 5888 5887 5886 5886 5886 5885 5884 5883 5882 5881 5880 5878 5877 5876 5874 5873 5871 5869 5867 5865 5862 5860 5859 5857 5855 5854 5852 5850 5848 5846 5844 5842 5841 5839 5837 5835 5833 5831 5829 5827 5825
5882 5883 5883 5883 5882 5882 5881 5880 5879 5878 5877 5876 5875 5874 5872 5871 5870 5868 5866 5864 5862 5860 5858 5856 5854 5852 5851 5849 5847 5845 5842 5840 5839 5837 5835 5833 5831 5829 5827 5825 5823 5821 5818
5878 5878 5878 5877 5877 5876 5876 5875 5874 5873 5872 5871 5870 5869 5867 5866 5864 5863 5861 5859 5857 5855 5853 5851 5849 5847 5845 5843 5841 5839 5837 5835 5833 5831 5829 5827 5825 5823 5820 5818 5816 5813 5811
5872 5872 5872 5871 5871 5870 5870 5869 5868 5867 5866 5865 5864 5863 5862 5860 5859 5857 5855 5853 5851 5849 5846 5845 5843 5841 5839 5837 5835 5832 5830 5828 5826 5824 5822 5820 5818 5815 5813 5811 5809 5806 5804
5866 5866 5866 5864 5865 5864 5864 5863 5862 5861 5860 5859 5858 5856 5856 5855 5853 5851 5849 5847 5845 5843 5841 5839 5837 5835 5833 5830 5828 5826 5823 5822 5820 5818 5815 5813 5810 5808 5806 5803 5801 5798 5796
5859 5859 5859 5859 5858 5858 5858 5857 5857 5856 5855 5853 5852 5850 5849 5848 5846 5844 5843 5841 5839 5837 5834 5832 5830 5828 5826 5823 5821 5819 5816 5814 5812 5810 5808 5805 5803 5800 5797 5795 5792 5790 5788
5852 5852 5853 5853 5852 5852 5851 5851 5850 5849 5848 5846 5845 5844 5842 5841 5839 5837 5835 5834 5832 5830 5827 5825 5823 5820 5818 5816 5814 5811 5809 5806 5804 5802 5799 5797 5794 5791 5789 5786 5784 5781 5779
5845 5845 5845 5845 5845 5844 5844 5843 5843 5841 5840 5839 5838 5836 5834 5833 5831 5829 5828 5826 5824 5822 5820 5817 5815 5813 5810 5808 5805 5803 5800 5797 5795 5793 5790 5787 5785 5782 5779 5777 5775 5772 5770
5836 5837 5837 5837 5836 5836 5836 5835 5835 5833 5832 5831 5830 5828 5826 5825 5823 5822 5820 5818 5816 5813 5811 5809 5807 5804 5802 5799 5796 5794 5791 5788 5786 5783 5781 5778 5775 5772 5770 5767 5765 5762 5760
5827 5828 5828 5828 5828 5827 5827 5827 5826 5825 5824 5823 5822 5820 5819 5817 5815 5814 5812 5810 5808 5805 5803 5800 5797 5795 5792 5790 5787 5785 5782 5779 5776 5773 5771 5768 5765 5763 5760 5757 5755 5753 5751
5818 5819 5819 5819 5819 5819 5819 5818 5817 5816 5815 5814 5813 5812 5810 5809 5807 5805 5803 5801 5799 5796 5794 5791 5788 5786 5783 5780 5778 5774 5772 5769 5766 5763 5760 5758 5755 5753 5749 5747 5745 5743 5741
5809 5809 5810 5810 5811 5810 5810 5809 5808 5807 5806 5805 5804 5803 5802 5800 5799 5797 5795 5792 5791 5788 5785 5782 5780 5777 5774 5771 5768 5765 5762 5759 5756 5753 5750 5748 5745 5742 5740 5737 5735 5733 5731